WZZ29W ENTC-EPKK

Flight info

Callsign WZZ29W
Flight time 3h 3m
Altitude 39000
Route MOKAX DCT PENOR DCT UWLER
Aircraft A20N/M-SDE2E3FGHIRWXY/LB1

Departure

Time 2026-05-04 17:42
Airport Tromsø Airport (ENTC)

Arrival

Time 2026-05-04 20:45
Airport Kraków John Paul II International Airport (EPKK)
Time Latitude Longitude Altitude Speed Heading
2026-05-04 17:24 69.68016 18.90945 34 ft 0 kts 283°
2026-05-04 17:34 69.68005 18.91070 34 ft 2 kts 283°
2026-05-04 17:34 69.68001 18.91116 33 ft 2 kts 283°
2026-05-04 17:35 69.68001 18.91253 30 ft 2 kts 192°
2026-05-04 17:35 69.68008 18.91257 31 ft 0 kts 193°
2026-05-04 17:36 69.68003 18.91253 30 ft 3 kts 193°
2026-05-04 17:37 69.67954 18.91220 34 ft 12 kts 193°
2026-05-04 17:37 69.67840 18.91147 34 ft 21 kts 193°
2026-05-04 17:37 69.67686 18.91071 34 ft 17 kts 193°
2026-05-04 17:37 69.67639 18.91111 33 ft 0 kts 108°
2026-05-04 17:39 69.67636 18.91137 33 ft 3 kts 108°
2026-05-04 17:40 69.67626 18.91225 37 ft 0 kts 107°
2026-05-04 17:40 69.67622 18.91283 36 ft 5 kts 102°
2026-05-04 17:40 69.67632 18.91410 38 ft 9 kts 43°
2026-05-04 17:40 69.67661 18.91442 40 ft 0 kts 14°
2026-05-04 17:41 69.67667 18.91446 40 ft 8 kts 14°
2026-05-04 17:41 69.67982 18.91667 38 ft 83 kts 11°
2026-05-04 17:42 69.68758 18.92175 44 ft 139 kts 14°
2026-05-04 17:42 69.69726 18.92789 514 ft 150 kts 14°
2026-05-04 17:42 69.70808 18.93463 1033 ft 167 kts 13°
2026-05-04 17:42 69.71987 18.94243 1664 ft 180 kts 14°
2026-05-04 17:43 69.73226 18.95100 2278 ft 188 kts 16°
2026-05-04 17:43 69.74520 18.96036 2928 ft 193 kts 17°
2026-05-04 17:43 69.75823 18.97036 3545 ft 198 kts 20°
2026-05-04 17:43 69.77075 18.99108 3833 ft 217 kts 46°
2026-05-04 17:44 69.77861 19.02985 4280 ft 232 kts 77°
2026-05-04 17:44 69.77831 19.07546 5116 ft 235 kts 102°
2026-05-04 17:44 69.77454 19.12048 6012 ft 240 kts 103°
2026-05-04 17:44 69.77062 19.16803 6951 ft 244 kts 103°
2026-05-04 17:45 69.76802 19.19994 7596 ft 246 kts 103°
2026-05-04 17:45 69.75904 19.26025 8826 ft 253 kts 132°
2026-05-04 17:45 69.74448 19.28922 9731 ft 257 kts 161°
2026-05-04 17:45 69.72678 19.29427 10611 ft 259 kts 190°
2026-05-04 17:46 69.70916 19.28236 11294 ft 272 kts 194°
2026-05-04 17:46 69.68997 19.26811 11699 ft 294 kts 194°
2026-05-04 17:46 69.66926 19.25304 12022 ft 317 kts 194°
2026-05-04 17:46 69.64739 19.23766 12477 ft 333 kts 193°
2026-05-04 17:47 69.62463 19.22201 13332 ft 337 kts 193°
2026-05-04 17:47 69.60160 19.20637 14128 ft 340 kts 193°
2026-05-04 17:47 69.57858 19.19188 14892 ft 343 kts 187°
2026-05-04 17:47 69.55469 19.19253 15668 ft 347 kts 170°
2026-05-04 17:48 69.53158 19.21431 16430 ft 351 kts 153°
2026-05-04 17:48 69.51015 19.24845 17168 ft 355 kts 151°
2026-05-04 17:48 69.48869 19.28303 17898 ft 358 kts 151°
2026-05-04 17:48 69.46683 19.31798 18596 ft 360 kts 152°
2026-05-04 17:49 69.44473 19.35304 19292 ft 362 kts 152°
2026-05-04 17:49 69.42289 19.38749 19956 ft 365 kts 152°
2026-05-04 17:49 69.40052 19.42264 20623 ft 368 kts 152°
2026-05-04 17:49 69.37795 19.45798 21292 ft 370 kts 152°
2026-05-04 17:50 69.35518 19.49355 21957 ft 373 kts 152°
2026-05-04 17:50 69.33255 19.52883 22584 ft 376 kts 152°
2026-05-04 17:50 69.30950 19.56466 23203 ft 379 kts 152°
2026-05-04 17:50 69.28621 19.60078 23648 ft 384 kts 152°
2026-05-04 17:51 69.26277 19.63704 24079 ft 388 kts 152°
2026-05-04 17:51 69.23910 19.67356 24521 ft 393 kts 153°
2026-05-04 17:51 69.21495 19.71073 24938 ft 397 kts 153°
2026-05-04 17:51 69.19046 19.74833 25367 ft 402 kts 153°
2026-05-04 17:52 69.16571 19.78622 25767 ft 406 kts 153°
2026-05-04 17:52 69.14106 19.82387 26164 ft 410 kts 153°
2026-05-04 17:52 69.11580 19.86235 26559 ft 414 kts 153°
2026-05-04 17:52 69.08938 19.89492 26940 ft 416 kts 164°
2026-05-04 17:53 69.06137 19.91172 27315 ft 418 kts 175°
2026-05-04 17:53 69.03219 19.91189 27686 ft 420 kts 187°
2026-05-04 17:53 69.00290 19.90195 27941 ft 427 kts 188°
2026-05-04 17:53 68.97338 19.89216 28469 ft 427 kts 188°
2026-05-04 17:54 68.94375 19.88246 28832 ft 430 kts 188°
2026-05-04 17:54 68.91395 19.87277 29171 ft 433 kts 188°
2026-05-04 17:54 68.88413 19.86311 29531 ft 436 kts 188°
2026-05-04 17:54 68.85359 19.85324 29823 ft 439 kts 188°
2026-05-04 17:55 68.82342 19.84351 30103 ft 442 kts 188°
2026-05-04 17:55 68.79266 19.83362 30386 ft 445 kts 188°
2026-05-04 17:55 68.76187 19.82374 30696 ft 447 kts 188°
2026-05-04 17:55 68.73071 19.81377 31059 ft 448 kts 188°
2026-05-04 17:56 68.69999 19.80398 31451 ft 448 kts 188°
2026-05-04 17:56 68.66906 19.79415 31825 ft 448 kts 188°
2026-05-04 17:56 68.63795 19.78429 32186 ft 448 kts 188°
2026-05-04 17:56 68.60727 19.77458 32533 ft 448 kts 188°
2026-05-04 17:57 68.57630 19.76482 32875 ft 448 kts 188°
2026-05-04 17:57 68.54500 19.75497 33221 ft 449 kts 188°
2026-05-04 17:57 68.51390 19.74522 33552 ft 449 kts 188°
2026-05-04 17:57 68.48328 19.73564 33826 ft 448 kts 188°
2026-05-04 17:58 68.45216 19.72593 34080 ft 449 kts 188°
2026-05-04 17:58 68.42099 19.71623 34344 ft 449 kts 188°
2026-05-04 17:58 68.39026 19.70669 34570 ft 449 kts 188°
2026-05-04 17:58 68.35902 19.69703 34804 ft 449 kts 188°
2026-05-04 17:59 68.32785 19.68742 35036 ft 449 kts 188°
2026-05-04 17:59 68.29698 19.67794 35264 ft 449 kts 188°
2026-05-04 17:59 68.23496 19.65898 35691 ft 449 kts 188°
2026-05-04 18:00 68.20370 19.64946 35899 ft 450 kts 188°
2026-05-04 18:00 68.17261 19.64003 36107 ft 449 kts 188°
2026-05-04 18:00 68.14183 19.63071 36310 ft 449 kts 188°
2026-05-04 18:00 68.12106 19.62444 36435 ft 449 kts 188°
2026-05-04 18:01 68.07971 19.61198 36679 ft 449 kts 188°
2026-05-04 18:01 68.04849 19.60260 36869 ft 449 kts 188°
2026-05-04 18:01 68.02790 19.59643 36990 ft 449 kts 188°
2026-05-04 18:02 67.96564 19.57784 37331 ft 449 kts 188°
2026-05-04 18:02 67.93483 19.56867 37489 ft 449 kts 188°
2026-05-04 18:02 67.90360 19.55941 37662 ft 449 kts 188°
2026-05-04 18:02 67.87284 19.55032 37819 ft 449 kts 188°
2026-05-04 18:03 67.84176 19.54116 37986 ft 448 kts 188°
2026-05-04 18:03 67.81069 19.53201 38127 ft 448 kts 188°
2026-05-04 18:03 67.77953 19.52287 38254 ft 448 kts 188°
2026-05-04 18:03 67.74882 19.51388 38371 ft 448 kts 188°
2026-05-04 18:04 67.68663 19.49574 38480 ft 448 kts 188°
2026-05-04 18:05 67.59417 19.46896 38483 ft 448 kts 188°
2026-05-04 18:05 67.53208 19.45110 38479 ft 448 kts 188°
2026-05-04 18:06 67.43929 19.42458 38481 ft 448 kts 188°
2026-05-04 18:06 67.37704 19.40690 38477 ft 448 kts 188°
2026-05-04 18:07 67.31521 19.38944 38479 ft 448 kts 188°
2026-05-04 18:07 67.25347 19.37209 38479 ft 448 kts 188°
2026-05-04 18:08 67.19134 19.35472 38480 ft 448 kts 188°
2026-05-04 18:08 67.12960 19.33756 38475 ft 448 kts 188°
2026-05-04 18:09 67.00566 19.30336 38480 ft 447 kts 188°
2026-05-04 18:10 66.94365 19.28639 38481 ft 447 kts 188°
2026-05-04 18:10 66.88182 19.26955 38471 ft 447 kts 188°
2026-05-04 18:11 66.82007 19.25281 38472 ft 447 kts 188°
2026-05-04 18:11 66.75829 19.23616 38468 ft 447 kts 188°
2026-05-04 18:12 66.69661 19.21960 38468 ft 447 kts 188°
2026-05-04 18:12 66.63459 19.20305 38465 ft 447 kts 188°
2026-05-04 18:13 66.57305 19.18671 38470 ft 446 kts 188°
2026-05-04 18:14 66.48026 19.16221 38468 ft 446 kts 188°
2026-05-04 18:14 66.41858 19.14604 38478 ft 446 kts 188°
2026-05-04 18:15 66.29519 19.11391 38480 ft 446 kts 188°
2026-05-04 18:16 66.23349 19.09796 38483 ft 446 kts 188°
2026-05-04 18:16 66.17159 19.08204 38480 ft 446 kts 188°
2026-05-04 18:17 66.07914 19.05841 38487 ft 446 kts 188°
2026-05-04 18:18 65.98664 19.03494 38493 ft 446 kts 188°
2026-05-04 18:18 65.92462 19.01930 38493 ft 446 kts 188°
2026-05-04 18:19 65.83220 18.99613 38486 ft 446 kts 189°
2026-05-04 18:19 65.77040 18.98073 38485 ft 446 kts 189°
2026-05-04 18:20 65.70878 18.96545 38486 ft 446 kts 189°
2026-05-04 18:20 65.64674 18.95014 38480 ft 446 kts 189°
2026-05-04 18:21 65.58543 18.93509 38478 ft 446 kts 189°
2026-05-04 18:21 65.52334 18.91991 38481 ft 446 kts 189°
2026-05-04 18:22 65.46193 18.90497 38487 ft 445 kts 189°
2026-05-04 18:22 65.40016 18.89002 38494 ft 445 kts 189°
2026-05-04 18:23 65.33868 18.87520 38498 ft 445 kts 189°
2026-05-04 18:23 65.27692 18.86038 38504 ft 444 kts 189°
2026-05-04 18:24 65.21554 18.84573 38509 ft 444 kts 189°
2026-05-04 18:24 65.15380 18.83106 38509 ft 444 kts 189°
2026-05-04 18:25 65.09268 18.81660 38504 ft 444 kts 189°
2026-05-04 18:25 65.03095 18.80207 38505 ft 444 kts 189°
2026-05-04 18:26 64.96972 18.78772 38503 ft 443 kts 189°
2026-05-04 18:26 64.90847 18.77343 38507 ft 443 kts 189°
2026-05-04 18:27 64.84686 18.75912 38510 ft 444 kts 189°
2026-05-04 18:27 64.78552 18.74494 38512 ft 444 kts 189°
2026-05-04 18:28 64.72426 18.73085 38513 ft 444 kts 189°
2026-05-04 18:28 64.66259 18.71673 38520 ft 444 kts 189°
2026-05-04 18:29 64.60134 18.70276 38528 ft 444 kts 189°
2026-05-04 18:29 64.53955 18.68874 38526 ft 444 kts 189°
2026-05-04 18:30 64.44763 18.66800 38532 ft 444 kts 189°
2026-05-04 18:31 64.38585 18.65414 38537 ft 445 kts 189°
2026-05-04 18:31 64.32443 18.64041 38539 ft 445 kts 189°
2026-05-04 18:32 64.26259 18.62666 38540 ft 445 kts 189°
2026-05-04 18:32 64.20111 18.61305 38546 ft 446 kts 189°
2026-05-04 18:33 64.13923 18.59941 38556 ft 446 kts 189°
2026-05-04 18:33 64.07723 18.58581 38550 ft 447 kts 189°
2026-05-04 18:34 64.01545 18.57231 38558 ft 447 kts 189°
2026-05-04 18:34 63.95365 18.55888 38564 ft 447 kts 190°
2026-05-04 18:35 63.89156 18.54543 38572 ft 448 kts 190°
2026-05-04 18:35 63.82961 18.53208 38574 ft 448 kts 190°
2026-05-04 18:36 63.76736 18.51873 38581 ft 449 kts 190°
2026-05-04 18:36 63.70523 18.50544 38583 ft 449 kts 190°
2026-05-04 18:37 63.64285 18.49218 38586 ft 449 kts 190°
2026-05-04 18:37 63.58086 18.47905 38584 ft 449 kts 190°
2026-05-04 18:38 63.51863 18.46595 38574 ft 447 kts 190°
2026-05-04 18:38 63.45706 18.45302 38570 ft 447 kts 190°
2026-05-04 18:39 63.39477 18.44000 38576 ft 447 kts 190°
2026-05-04 18:39 63.33303 18.42715 38583 ft 447 kts 190°
2026-05-04 18:40 63.27096 18.41428 38590 ft 447 kts 191°
2026-05-04 18:40 63.20905 18.40151 38592 ft 448 kts 191°
2026-05-04 18:41 63.14721 18.38880 38606 ft 448 kts 191°
2026-05-04 18:41 63.08528 18.37615 38614 ft 448 kts 191°
2026-05-04 18:42 63.02330 18.36353 38601 ft 447 kts 191°
2026-05-04 18:42 62.96118 18.35094 38607 ft 448 kts 191°
2026-05-04 18:43 62.89943 18.33849 38606 ft 445 kts 191°
2026-05-04 18:43 62.83748 18.32601 38613 ft 446 kts 191°
2026-05-04 18:44 62.77586 18.31367 38616 ft 445 kts 191°
2026-05-04 18:44 62.71410 18.30135 38615 ft 445 kts 191°
2026-05-04 18:45 62.65264 18.28914 38619 ft 445 kts 191°
2026-05-04 18:45 62.59108 18.27696 38624 ft 445 kts 191°
2026-05-04 18:46 62.52932 18.26480 38630 ft 445 kts 191°
2026-05-04 18:46 62.46788 18.25275 38631 ft 445 kts 191°
2026-05-04 18:47 62.40591 18.24065 38637 ft 445 kts 191°
2026-05-04 18:47 62.34444 18.22869 38637 ft 445 kts 191°
2026-05-04 18:48 62.28252 18.21670 38642 ft 445 kts 191°
2026-05-04 18:48 62.22112 18.20485 38641 ft 445 kts 191°
2026-05-04 18:49 62.15960 18.19304 38639 ft 445 kts 191°
2026-05-04 18:49 62.09782 18.18121 38647 ft 445 kts 191°
2026-05-04 18:50 62.04637 18.17141 38647 ft 445 kts 191°
2026-05-04 18:50 61.98470 18.15969 38651 ft 444 kts 191°
2026-05-04 18:51 61.92334 18.14809 38655 ft 444 kts 191°
2026-05-04 18:51 61.86166 18.13648 38645 ft 442 kts 191°
2026-05-04 18:52 61.80063 18.12503 38646 ft 441 kts 192°
2026-05-04 18:52 61.73939 18.11357 38647 ft 441 kts 192°
2026-05-04 18:53 61.67867 18.10227 38646 ft 440 kts 192°
2026-05-04 18:53 61.61772 18.09097 38647 ft 439 kts 192°
2026-05-04 18:54 61.55700 18.07976 38644 ft 438 kts 192°
2026-05-04 18:54 61.49621 18.06858 38659 ft 438 kts 191°
2026-05-04 18:55 61.43537 18.05743 38655 ft 437 kts 191°
2026-05-04 18:55 61.34477 18.04091 38651 ft 436 kts 191°
2026-05-04 18:56 61.28418 18.02991 38649 ft 436 kts 191°
2026-05-04 18:56 61.22405 18.01904 38647 ft 436 kts 191°
2026-05-04 18:57 61.16365 18.00816 38650 ft 436 kts 191°
2026-05-04 18:57 61.10294 17.99726 38648 ft 436 kts 191°
2026-05-04 18:58 61.04232 17.98642 38648 ft 437 kts 191°
2026-05-04 18:58 60.98199 17.97567 38654 ft 437 kts 191°
2026-05-04 18:59 60.92128 17.96490 38657 ft 438 kts 191°
2026-05-04 18:59 60.86071 17.95420 38664 ft 438 kts 191°
2026-05-04 19:00 60.79958 17.94344 38670 ft 439 kts 191°
2026-05-04 19:00 60.73862 17.93275 38671 ft 440 kts 191°
2026-05-04 19:01 60.67781 17.92213 38670 ft 440 kts 191°
2026-05-04 19:01 60.61692 17.91153 38673 ft 440 kts 191°
2026-05-04 19:02 60.55556 17.90089 38673 ft 441 kts 191°
2026-05-04 19:02 60.49466 17.89036 38666 ft 441 kts 191°
2026-05-04 19:03 60.43391 17.87993 38667 ft 439 kts 191°
2026-05-04 19:03 60.37283 17.86945 38670 ft 440 kts 191°
2026-05-04 19:04 60.31187 17.85903 38663 ft 440 kts 191°
2026-05-04 19:04 60.25064 17.84861 38669 ft 441 kts 191°
2026-05-04 19:05 60.18963 17.83827 38668 ft 441 kts 190°
2026-05-04 19:05 60.12843 17.82793 38666 ft 442 kts 190°
2026-05-04 19:06 60.06685 17.81757 38669 ft 443 kts 190°
2026-05-04 19:06 60.00555 17.80731 38680 ft 443 kts 190°
2026-05-04 19:07 59.94386 17.79701 38691 ft 444 kts 190°
2026-05-04 19:07 59.88275 17.78687 38685 ft 441 kts 190°
2026-05-04 19:08 59.82140 17.77671 38690 ft 441 kts 190°
2026-05-04 19:08 59.76057 17.76666 38697 ft 440 kts 190°
2026-05-04 19:09 59.69974 17.75665 38689 ft 440 kts 190°
2026-05-04 19:09 59.63849 17.74661 38691 ft 441 kts 191°
2026-05-04 19:10 59.57750 17.73664 38694 ft 441 kts 191°
2026-05-04 19:10 59.51607 17.72665 38697 ft 442 kts 191°
2026-05-04 19:11 59.45498 17.71676 38722 ft 442 kts 191°
2026-05-04 19:11 59.39333 17.70681 38723 ft 443 kts 191°
2026-05-04 19:12 59.30128 17.69202 38726 ft 443 kts 191°
2026-05-04 19:13 59.23999 17.68222 38725 ft 443 kts 191°
2026-05-04 19:13 59.17857 17.67243 38727 ft 443 kts 191°
2026-05-04 19:14 59.11685 17.66263 38732 ft 443 kts 191°
2026-05-04 19:14 59.05571 17.65295 38738 ft 443 kts 191°
2026-05-04 19:15 58.99393 17.64321 38740 ft 443 kts 191°
2026-05-04 19:15 58.93266 17.63357 38743 ft 443 kts 191°
2026-05-04 19:16 58.87133 17.62396 38751 ft 443 kts 191°
2026-05-04 19:16 58.80963 17.61434 38750 ft 443 kts 190°
2026-05-04 19:17 58.74850 17.60483 38758 ft 442 kts 190°
2026-05-04 19:17 58.68721 17.59533 38754 ft 442 kts 190°
2026-05-04 19:18 58.62565 17.58583 38756 ft 441 kts 190°
2026-05-04 19:18 58.56464 17.57644 38760 ft 441 kts 190°
2026-05-04 19:19 58.50356 17.56707 38765 ft 441 kts 190°
2026-05-04 19:19 58.44245 17.55774 38769 ft 440 kts 190°
2026-05-04 19:20 58.38161 17.54847 38766 ft 440 kts 190°
2026-05-04 19:20 58.32036 17.53918 38767 ft 440 kts 190°
2026-05-04 19:21 58.25961 17.52999 38769 ft 439 kts 190°
2026-05-04 19:21 58.19848 17.52078 38773 ft 439 kts 190°
2026-05-04 19:22 58.13768 17.51164 38775 ft 439 kts 190°
2026-05-04 19:22 58.07703 17.50257 38775 ft 439 kts 190°
2026-05-04 19:23 58.01606 17.49347 38774 ft 439 kts 190°
2026-05-04 19:23 57.95493 17.48439 38778 ft 439 kts 190°
2026-05-04 19:24 57.89405 17.47536 38781 ft 440 kts 190°
2026-05-04 19:24 57.83300 17.46635 38781 ft 440 kts 190°
2026-05-04 19:25 57.77177 17.45734 38786 ft 440 kts 190°
2026-05-04 19:25 57.71066 17.44838 38789 ft 441 kts 190°
2026-05-04 19:26 57.64983 17.43949 38795 ft 441 kts 190°
2026-05-04 19:26 57.58839 17.43054 38797 ft 442 kts 190°
2026-05-04 19:27 57.52726 17.42166 38806 ft 442 kts 189°
2026-05-04 19:27 57.46573 17.41276 38806 ft 443 kts 189°
2026-05-04 19:28 57.40443 17.40392 38814 ft 443 kts 189°
2026-05-04 19:28 57.34282 17.39507 38822 ft 443 kts 189°
2026-05-04 19:29 57.28135 17.38627 38821 ft 443 kts 189°
2026-05-04 19:29 57.21994 17.37752 38821 ft 440 kts 189°
2026-05-04 19:30 57.15922 17.36887 38825 ft 440 kts 189°
2026-05-04 19:30 57.09796 17.36018 38827 ft 440 kts 189°
2026-05-04 19:31 57.03714 17.35158 38833 ft 440 kts 189°
2026-05-04 19:31 56.97604 17.34298 38837 ft 440 kts 189°
2026-05-04 19:32 56.91495 17.33440 38838 ft 440 kts 189°
2026-05-04 19:32 56.85413 17.32589 38840 ft 439 kts 189°
2026-05-04 19:33 56.79297 17.31736 38845 ft 439 kts 189°
2026-05-04 19:33 56.73210 17.30890 38849 ft 439 kts 189°
2026-05-04 19:34 56.67138 17.30048 38843 ft 439 kts 189°
2026-05-04 19:34 56.61074 17.29211 38852 ft 439 kts 189°
2026-05-04 19:35 56.54970 17.28370 38853 ft 439 kts 189°
2026-05-04 19:35 56.48895 17.27536 38866 ft 439 kts 189°
2026-05-04 19:36 56.43828 17.26843 38864 ft 439 kts 189°
2026-05-04 19:36 56.37750 17.26013 38865 ft 439 kts 189°
2026-05-04 19:37 56.31642 17.25183 38871 ft 439 kts 189°
2026-05-04 19:37 56.25545 17.24356 38872 ft 439 kts 189°
2026-05-04 19:38 56.19443 17.23530 38875 ft 439 kts 189°
2026-05-04 19:38 56.13366 17.22710 38882 ft 439 kts 189°
2026-05-04 19:39 56.07300 17.21894 38884 ft 439 kts 189°
2026-05-04 19:39 56.01186 17.21074 38890 ft 439 kts 189°
2026-05-04 19:40 55.95115 17.20263 38896 ft 439 kts 189°
2026-05-04 19:40 55.89002 17.19449 38894 ft 439 kts 189°
2026-05-04 19:41 55.82945 17.18644 38899 ft 439 kts 189°
2026-05-04 19:41 55.76824 17.17834 38904 ft 439 kts 189°
2026-05-04 19:42 55.70754 17.17033 38913 ft 439 kts 189°
2026-05-04 19:42 55.64656 17.16729 38917 ft 442 kts 182°
2026-05-04 19:43 55.58485 17.17878 38921 ft 448 kts 174°
2026-05-04 19:43 55.52386 17.20037 38923 ft 448 kts 174°
2026-05-04 19:44 55.46251 17.22169 38931 ft 447 kts 174°
2026-05-04 19:44 55.40166 17.24250 38930 ft 447 kts 174°
2026-05-04 19:45 55.34058 17.26327 38933 ft 446 kts 174°
2026-05-04 19:45 55.27986 17.28385 38941 ft 446 kts 174°
2026-05-04 19:46 55.21893 17.30442 38943 ft 445 kts 174°
2026-05-04 19:46 55.15800 17.32494 38942 ft 444 kts 174°
2026-05-04 19:47 55.09742 17.34527 38945 ft 444 kts 174°
2026-05-04 19:47 55.03703 17.36548 38945 ft 443 kts 174°
2026-05-04 19:48 54.97622 17.38576 38948 ft 443 kts 174°
2026-05-04 19:48 54.91600 17.40579 38949 ft 442 kts 174°
2026-05-04 19:49 54.85547 17.42585 38952 ft 442 kts 174°
2026-05-04 19:49 54.79521 17.44577 38956 ft 442 kts 174°
2026-05-04 19:50 54.73469 17.46571 38957 ft 441 kts 174°
2026-05-04 19:50 54.67462 17.48544 38955 ft 441 kts 174°
2026-05-04 19:51 54.61421 17.50523 38964 ft 441 kts 174°
2026-05-04 19:51 54.55371 17.52499 38972 ft 441 kts 174°
2026-05-04 19:52 54.49338 17.54463 38972 ft 441 kts 174°
2026-05-04 19:52 54.43344 17.56408 38970 ft 441 kts 174°
2026-05-04 19:53 54.37313 17.58360 38973 ft 441 kts 174°
2026-05-04 19:53 54.31300 17.60300 38971 ft 441 kts 174°
2026-05-04 19:54 54.25260 17.62243 38973 ft 441 kts 174°
2026-05-04 19:54 54.19210 17.64183 38973 ft 441 kts 174°
2026-05-04 19:55 54.13184 17.66110 38974 ft 441 kts 174°
2026-05-04 19:55 54.07181 17.68024 38973 ft 441 kts 174°
2026-05-04 19:56 54.01119 17.69951 38970 ft 441 kts 174°
2026-05-04 19:56 53.95103 17.71858 38974 ft 442 kts 174°
2026-05-04 19:57 53.89042 17.73774 38977 ft 442 kts 174°
2026-05-04 19:57 53.83006 17.75676 38973 ft 442 kts 174°
2026-05-04 19:58 53.76971 17.77571 38968 ft 442 kts 174°
2026-05-04 19:58 53.70914 17.79469 38967 ft 443 kts 174°
2026-05-04 19:59 53.64830 17.81369 38966 ft 443 kts 174°
2026-05-04 19:59 53.58794 17.83249 38972 ft 444 kts 174°
2026-05-04 20:00 53.52677 17.85148 38969 ft 444 kts 174°
2026-05-04 20:00 53.46639 17.87018 38968 ft 444 kts 174°
2026-05-04 20:01 53.40524 17.88906 38966 ft 445 kts 174°
2026-05-04 20:01 53.34474 17.90768 38957 ft 445 kts 174°
2026-05-04 20:02 53.28374 17.92641 38952 ft 445 kts 174°
2026-05-04 20:02 53.22262 17.94511 38945 ft 445 kts 174°
2026-05-04 20:03 53.16192 17.96363 38945 ft 445 kts 174°
2026-05-04 20:03 53.10089 17.98220 38942 ft 445 kts 174°
2026-05-04 20:04 53.03973 18.00076 38940 ft 445 kts 174°
2026-05-04 20:04 52.97896 18.01915 38940 ft 445 kts 174°
2026-05-04 20:04 52.94860 18.02832 38809 ft 442 kts 174°
2026-05-04 20:05 52.91952 18.03711 38382 ft 440 kts 174°
2026-05-04 20:05 52.88980 18.04606 37728 ft 439 kts 174°
2026-05-04 20:05 52.85966 18.05512 37010 ft 439 kts 174°
2026-05-04 20:05 52.82963 18.06414 36419 ft 436 kts 174°
2026-05-04 20:06 52.79967 18.07313 36299 ft 436 kts 174°
2026-05-04 20:06 52.76936 18.08214 36193 ft 446 kts 174°
2026-05-04 20:06 52.73910 18.09115 36087 ft 447 kts 174°
2026-05-04 20:06 52.70844 18.10032 35971 ft 446 kts 174°
2026-05-04 20:07 52.67792 18.10944 35943 ft 446 kts 174°
2026-05-04 20:07 52.61693 18.12759 35932 ft 447 kts 174°
2026-05-04 20:08 52.55558 18.14579 35940 ft 447 kts 174°
2026-05-04 20:08 52.49455 18.16384 35939 ft 448 kts 174°
2026-05-04 20:09 52.43309 18.18197 35941 ft 448 kts 174°
2026-05-04 20:09 52.37156 18.20007 35940 ft 449 kts 174°
2026-05-04 20:10 52.31030 18.21803 35936 ft 449 kts 174°
2026-05-04 20:10 52.24883 18.23603 35700 ft 444 kts 174°
2026-05-04 20:10 52.21837 18.24493 35010 ft 443 kts 174°
2026-05-04 20:11 52.18835 18.25368 34148 ft 443 kts 174°
2026-05-04 20:11 52.15784 18.26254 33089 ft 445 kts 174°
2026-05-04 20:11 52.12731 18.27138 32156 ft 449 kts 174°
2026-05-04 20:11 52.09638 18.28034 31288 ft 451 kts 174°
2026-05-04 20:12 52.06532 18.28933 30432 ft 453 kts 174°
2026-05-04 20:12 52.03426 18.29833 29707 ft 451 kts 174°
2026-05-04 20:12 52.00364 18.30721 29050 ft 445 kts 174°
2026-05-04 20:12 51.97354 18.31591 28400 ft 440 kts 174°
2026-05-04 20:13 51.94353 18.32458 27738 ft 436 kts 173°
2026-05-04 20:13 51.91374 18.33315 27100 ft 432 kts 173°
2026-05-04 20:13 51.88429 18.34162 26493 ft 427 kts 173°
2026-05-04 20:13 51.85508 18.35000 25890 ft 423 kts 173°
2026-05-04 20:14 51.82644 18.35821 25305 ft 419 kts 173°
2026-05-04 20:14 51.79771 18.36643 24728 ft 415 kts 173°
2026-05-04 20:14 51.76974 18.37443 24174 ft 411 kts 173°
2026-05-04 20:14 51.74166 18.38244 23618 ft 407 kts 173°
2026-05-04 20:15 51.71382 18.39037 22985 ft 404 kts 173°
2026-05-04 20:15 51.68632 18.39820 22359 ft 399 kts 173°
2026-05-04 20:15 51.65896 18.40598 21742 ft 396 kts 173°
2026-05-04 20:15 51.63192 18.41366 21142 ft 392 kts 173°
2026-05-04 20:16 51.60552 18.42114 20556 ft 388 kts 173°
2026-05-04 20:16 51.57896 18.42867 19962 ft 385 kts 173°
2026-05-04 20:16 51.55266 18.43611 19410 ft 381 kts 173°
2026-05-04 20:16 51.52687 18.44341 18847 ft 378 kts 173°
2026-05-04 20:17 51.50097 18.45072 18294 ft 375 kts 173°
2026-05-04 20:17 51.47537 18.45795 17717 ft 371 kts 173°
2026-05-04 20:17 51.45002 18.46511 17135 ft 367 kts 173°
2026-05-04 20:17 51.42490 18.47218 16566 ft 364 kts 173°
2026-05-04 20:18 51.40004 18.47917 16010 ft 360 kts 173°
2026-05-04 20:18 51.37550 18.48607 15462 ft 357 kts 173°
2026-05-04 20:18 51.35122 18.49288 14949 ft 353 kts 173°
2026-05-04 20:18 51.32723 18.49961 14431 ft 350 kts 173°
2026-05-04 20:19 51.30335 18.50629 13926 ft 346 kts 173°
2026-05-04 20:19 51.27955 18.51295 13365 ft 343 kts 173°
2026-05-04 20:19 51.25633 18.51943 12793 ft 341 kts 173°
2026-05-04 20:19 51.23301 18.52592 12218 ft 339 kts 173°
2026-05-04 20:20 51.20981 18.53238 11667 ft 337 kts 173°
2026-05-04 20:20 51.18696 18.53875 11156 ft 334 kts 173°
2026-05-04 20:20 51.16427 18.54508 11046 ft 333 kts 173°
2026-05-04 20:20 51.14111 18.55149 10951 ft 336 kts 173°
2026-05-04 20:21 51.11839 18.55781 10949 ft 335 kts 173°
2026-05-04 20:21 51.10282 18.56214 10950 ft 335 kts 173°
2026-05-04 20:21 51.04929 18.57699 10946 ft 335 kts 173°
2026-05-04 20:22 51.03393 18.58124 10948 ft 335 kts 173°
2026-05-04 20:22 51.01091 18.58761 10951 ft 335 kts 173°
2026-05-04 20:22 50.98789 18.59398 10954 ft 335 kts 173°
2026-05-04 20:22 50.96501 18.60045 10948 ft 336 kts 172°
2026-05-04 20:23 50.94202 18.60726 10952 ft 336 kts 172°
2026-05-04 20:23 50.91908 18.61415 10955 ft 336 kts 172°
2026-05-04 20:23 50.89624 18.62100 10955 ft 336 kts 172°
2026-05-04 20:23 50.87329 18.62783 10951 ft 336 kts 172°
2026-05-04 20:24 50.85021 18.63468 10955 ft 336 kts 172°
2026-05-04 20:24 50.82749 18.64140 10955 ft 336 kts 172°
2026-05-04 20:24 50.80451 18.64819 10955 ft 336 kts 172°
2026-05-04 20:24 50.78148 18.65498 10958 ft 336 kts 172°
2026-05-04 20:25 50.75844 18.66177 10958 ft 336 kts 172°
2026-05-04 20:25 50.73535 18.66856 10957 ft 336 kts 172°
2026-05-04 20:25 50.71266 18.67734 10959 ft 339 kts 160°
2026-05-04 20:25 50.69295 18.69758 10962 ft 345 kts 138°
2026-05-04 20:26 50.67888 18.72801 10970 ft 350 kts 121°
2026-05-04 20:26 50.66704 18.76165 10952 ft 349 kts 121°
2026-05-04 20:26 50.65538 18.79465 10711 ft 346 kts 121°
2026-05-04 20:26 50.64415 18.82825 10222 ft 345 kts 114°
2026-05-04 20:27 50.63377 18.86188 10020 ft 332 kts 115°
2026-05-04 20:27 50.62366 18.89320 9891 ft 316 kts 117°
2026-05-04 20:27 50.61338 18.92305 9755 ft 301 kts 118°
2026-05-04 20:27 50.60318 18.95143 9437 ft 295 kts 120°
2026-05-04 20:28 50.59305 18.97904 8999 ft 294 kts 120°
2026-05-04 20:28 50.58277 19.00696 8567 ft 292 kts 124°
2026-05-04 20:28 50.57184 19.03388 8148 ft 290 kts 128°
2026-05-04 20:28 50.56086 19.05996 7735 ft 289 kts 127°
2026-05-04 20:29 50.55023 19.08671 7349 ft 287 kts 125°
2026-05-04 20:29 50.54009 19.11380 6948 ft 287 kts 124°
2026-05-04 20:29 50.53024 19.14110 6571 ft 285 kts 123°
2026-05-04 20:29 50.52070 19.16800 6197 ft 284 kts 123°
2026-05-04 20:30 50.51113 19.19515 5797 ft 283 kts 123°
2026-05-04 20:30 50.50160 19.22216 5392 ft 282 kts 123°
2026-05-04 20:30 50.49211 19.24901 5187 ft 276 kts 123°
2026-05-04 20:30 50.48264 19.27556 5075 ft 283 kts 124°
2026-05-04 20:31 50.47302 19.30250 5002 ft 280 kts 124°
2026-05-04 20:31 50.46343 19.32923 4999 ft 281 kts 123°
2026-05-04 20:31 50.45378 19.35607 4995 ft 282 kts 124°
2026-05-04 20:31 50.44412 19.38292 4994 ft 283 kts 124°
2026-05-04 20:32 50.43456 19.40942 4995 ft 281 kts 123°
2026-05-04 20:32 50.42489 19.43623 4993 ft 281 kts 124°
2026-05-04 20:32 50.41522 19.46296 4991 ft 281 kts 123°
2026-05-04 20:32 50.40553 19.48970 4994 ft 282 kts 123°
2026-05-04 20:33 50.39584 19.51639 4993 ft 281 kts 123°
2026-05-04 20:33 50.38626 19.54275 4990 ft 282 kts 123°
2026-05-04 20:33 50.37656 19.56940 4989 ft 281 kts 123°
2026-05-04 20:33 50.36684 19.59611 4989 ft 282 kts 123°
2026-05-04 20:34 50.35710 19.62279 4992 ft 282 kts 123°
2026-05-04 20:34 50.34748 19.64914 4991 ft 282 kts 123°
2026-05-04 20:34 50.33768 19.67594 4992 ft 282 kts 123°
2026-05-04 20:34 50.32801 19.70236 4995 ft 281 kts 123°
2026-05-04 20:35 50.31827 19.72895 4997 ft 281 kts 123°
2026-05-04 20:35 50.30848 19.75564 4995 ft 283 kts 123°
2026-05-04 20:35 50.29862 19.78246 4998 ft 283 kts 123°
2026-05-04 20:35 50.28878 19.80923 4997 ft 282 kts 123°
2026-05-04 20:36 50.27899 19.83585 4998 ft 282 kts 123°
2026-05-04 20:36 50.26931 19.86209 4997 ft 281 kts 123°
2026-05-04 20:36 50.25947 19.88870 4998 ft 282 kts 123°
2026-05-04 20:36 50.24960 19.91539 4997 ft 283 kts 123°
2026-05-04 20:37 50.23986 19.94175 4995 ft 283 kts 123°
2026-05-04 20:37 50.23002 19.96833 4998 ft 282 kts 123°
2026-05-04 20:37 50.22013 19.99503 4998 ft 282 kts 123°
2026-05-04 20:37 50.21040 20.02128 4996 ft 282 kts 123°
2026-05-04 20:38 50.20052 20.04786 4995 ft 284 kts 123°
2026-05-04 20:38 50.19058 20.07461 4997 ft 283 kts 123°
2026-05-04 20:38 50.18080 20.10087 4994 ft 282 kts 123°
2026-05-04 20:38 50.16932 20.12450 4994 ft 262 kts 144°
2026-05-04 20:39 50.15385 20.13621 4994 ft 236 kts 175°
2026-05-04 20:39 50.13823 20.13390 5001 ft 228 kts 206°
2026-05-04 20:39 50.12600 20.11902 5000 ft 223 kts 236°
2026-05-04 20:39 50.12008 20.09723 4995 ft 212 kts 259°
2026-05-04 20:40 50.11786 20.07622 4989 ft 184 kts 259°
2026-05-04 20:40 50.11558 20.05782 4918 ft 161 kts 257°
2026-05-04 20:40 50.11347 20.04209 4837 ft 136 kts 256°
2026-05-04 20:40 50.11150 20.02833 4542 ft 127 kts 255°
2026-05-04 20:41 50.10946 20.01532 4242 ft 120 kts 256°
2026-05-04 20:41 50.10793 20.00265 3968 ft 124 kts 258°
2026-05-04 20:41 50.10638 19.98880 3761 ft 130 kts 258°
2026-05-04 20:41 50.10452 19.97511 3456 ft 127 kts 253°
2026-05-04 20:42 50.10219 19.96196 3165 ft 127 kts 255°
2026-05-04 20:42 50.10053 19.94833 2875 ft 128 kts 258°
2026-05-04 20:42 50.09901 19.93454 2580 ft 129 kts 257°
2026-05-04 20:42 50.09723 19.92087 2287 ft 129 kts 254°
2026-05-04 20:43 50.09481 19.90751 2098 ft 130 kts 252°
2026-05-04 20:43 50.09285 19.89353 1911 ft 133 kts 258°
2026-05-04 20:43 50.09104 19.87944 1735 ft 137 kts 257°
2026-05-04 20:43 50.08896 19.86487 1547 ft 139 kts 256°
2026-05-04 20:44 50.08715 19.85212 1413 ft 139 kts 258°
2026-05-04 20:44 50.08603 19.84343 1290 ft 139 kts 259°
2026-05-04 20:44 50.08395 19.82912 1140 ft 135 kts 256°
2026-05-04 20:44 50.08194 19.81477 1003 ft 135 kts 258°
2026-05-04 20:45 50.07990 19.80049 855 ft 136 kts 258°
2026-05-04 20:45 50.07806 19.78693 801 ft 109 kts 256°
2026-05-04 20:45 50.07695 19.77920 797 ft 50 kts 257°
2026-05-04 20:45 50.07628 19.77400 799 ft 48 kts 256°
2026-05-04 20:46 50.07554 19.76904 802 ft 41 kts 242°
2026-05-04 20:46 50.07416 19.76865 800 ft 24 kts 162°
2026-05-04 20:46 50.07302 19.76968 799 ft 10 kts 96°
2026-05-04 20:46 50.07326 19.77099 799 ft 17 kts 78°
2026-05-04 20:47 50.07355 19.77303 799 ft 21 kts 77°
2026-05-04 20:47 50.07386 19.77542 799 ft 24 kts 79°
2026-05-04 20:47 50.07423 19.77799 799 ft 25 kts 76°
2026-05-04 20:47 50.07463 19.78078 799 ft 28 kts 77°
2026-05-04 20:48 50.07507 19.78391 800 ft 31 kts 78°
2026-05-04 20:48 50.07550 19.78716 800 ft 31 kts 77°
2026-05-04 20:48 50.07598 19.79050 800 ft 32 kts 77°
2026-05-04 20:48 50.07646 19.79387 800 ft 32 kts 77°
2026-05-04 20:49 50.07675 19.79670 800 ft 13 kts 115°
2026-05-04 20:49 50.07626 19.79706 800 ft 11 kts 162°
2026-05-04 20:49 50.07516 19.79740 800 ft 21 kts 168°
2026-05-04 20:49 50.07379 19.79813 800 ft 13 kts 119°
2026-05-04 20:50 50.07389 19.79954 800 ft 16 kts 74°
2026-05-04 20:50 50.07397 19.80078 800 ft 6 kts 144°
2026-05-04 20:50 50.07351 19.80099 800 ft 9 kts 167°
2026-05-04 20:50 50.07326 19.80107 800 ft 0 kts 167°